• en France
  • Liste des pays
  • À 7 jours
  • Température de l'eau
  • Carte satellitaire
  • Carte météo
  • Widgets météo
  • user-avatar
    Se connecter

    Météo par heure à Sevan

    Ce jour, 16 Janvier, Mardi

    Heure Température Précipitation Vent Pression Humidité
    00:00 -4°C° 0 mm 1 m/s 642 mmHg 79%
    01:00 -4°C° 0 mm 1 m/s 642 mmHg 79%
    02:00 -6°C° 0 mm 1 m/s 642 mmHg 79%
    03:00 -6°C° 0 mm 1 m/s 642 mmHg 79%
    04:00 -6°C° 0,1 mm 1 m/s 642 mmHg 79%
    05:00 -6°C° 0,1 mm 1 m/s 642 mmHg 79%
    06:00 -6°C° 0,1 mm 1 m/s 642 mmHg 79%
    07:00 -4°C° 0,1 mm 1 m/s 642 mmHg 78%
    08:00 -3°C° 0,1 mm 1 m/s 642 mmHg 77%
    09:00 -2°C° 0,1 mm 1 m/s 642 mmHg 75%
    10:00 -2°C° 0,1 mm 1 m/s 642 mmHg 73%
    11:00 -1°C° 0,1 mm 1 m/s 642 mmHg 71%
    12:00 0°C° 0,1 mm 1 m/s 642 mmHg 69%
    13:00 0°C° 0,1 mm 1 m/s 641 mmHg 70%
    14:00 0°C° 0,1 mm 1 m/s 641 mmHg 70%
    15:00 0°C° 0,1 mm 1 m/s 640 mmHg 71%
    16:00 -1°C° 0,1 mm 1 m/s 640 mmHg 72%
    17:00 -2°C° 0,1 mm 1 m/s 640 mmHg 74%
    18:00 -3°C° 0,1 mm 1 m/s 640 mmHg 76%
    19:00 -4°C° 0 mm 1 m/s 640 mmHg 76%
    20:00 -4°C° 0 mm 1 m/s 640 mmHg 75%
    21:00 -6°C° 0 mm 1 m/s 640 mmHg 75%
    22:00 -6°C° 0 mm 1 m/s 639 mmHg 75%
    23:00 -6°C° 0 mm 1 m/s 639 mmHg 75%

    Demain, 17 Janvier, Mercredi

    Heure Température Précipitation Vent Pression Humidité
    00:00 -7°C° 0 mm 1 m/s 639 mmHg 76%
    01:00 -7°C° 0 mm 1 m/s 639 mmHg 76%
    02:00 -7°C° 0 mm 1 m/s 639 mmHg 77%
    03:00 -7°C° 0 mm 1 m/s 639 mmHg 77%
    04:00 -7°C° 0 mm 1 m/s 638 mmHg 77%
    05:00 -7°C° 0 mm 1 m/s 638 mmHg 77%
    06:00 -8°C° 0 mm 2 m/s 638 mmHg 77%
    07:00 -7°C° 0 mm 2 m/s 638 mmHg 76%
    08:00 -6°C° 0 mm 2 m/s 638 mmHg 74%
    09:00 -6°C° 0 mm 2 m/s 639 mmHg 72%
    10:00 -5°C° 0 mm 2 m/s 638 mmHg 70%
    11:00 -4°C° 0 mm 2 m/s 638 mmHg 68%
    12:00 -3°C° 0 mm 2 m/s 638 mmHg 67%
    13:00 -3°C° 0 mm 2 m/s 637 mmHg 67%
    14:00 -2°C° 0 mm 2 m/s 637 mmHg 67%
    15:00 -2°C° 0 mm 2 m/s 637 mmHg 67%
    16:00 -3°C° 0 mm 2 m/s 636 mmHg 69%
    17:00 -4°C° 0 mm 2 m/s 636 mmHg 71%
    18:00 -5°C° 0 mm 2 m/s 636 mmHg 73%
    19:00 -6°C° 0 mm 2 m/s 636 mmHg 73%
    20:00 -6°C° 0 mm 2 m/s 636 mmHg 73%
    21:00 -6°C° 0 mm 2 m/s 636 mmHg 73%
    22:00 -6°C° 0 mm 2 m/s 636 mmHg 74%
    23:00 -6°C° 0 mm 2 m/s 636 mmHg 75%

    Après-demain, 18 Janvier, Jeudi

    Heure Température Précipitation Vent Pression Humidité
    00:00 -6°C° 0 mm 2 m/s 636 mmHg 75%
    01:00 -6°C° 0,1 mm 2 m/s 636 mmHg 76%
    02:00 -6°C° 0,1 mm 2 m/s 636 mmHg 76%
    03:00 -6°C° 0,1 mm 2 m/s 635 mmHg 77%
    04:00 -6°C° 0,1 mm 2 m/s 635 mmHg 77%
    05:00 -6°C° 0,1 mm 2 m/s 635 mmHg 78%
    06:00 -7°C° 0,1 mm 3 m/s 635 mmHg 79%
    07:00 -6°C° 0,1 mm 3 m/s 635 mmHg 78%
    08:00 -6°C° 0,1 mm 3 m/s 635 mmHg 76%
    09:00 -5°C° 0,1 mm 4 m/s 635 mmHg 75%
    10:00 -4°C° 0,1 mm 4 m/s 635 mmHg 73%
    11:00 -3°C° 0,1 mm 4 m/s 634 mmHg 71%
    12:00 -2°C° 0,1 mm 5 m/s 634 mmHg 69%
    13:00 -2°C° 0 mm 5 m/s 633 mmHg 69%
    14:00 -1°C° 0 mm 5 m/s 633 mmHg 69%
    15:00 -1°C° 0 mm 5 m/s 632 mmHg 69%
    16:00 -2°C° 0,1 mm 4 m/s 632 mmHg 71%
    17:00 -2°C° 0,1 mm 4 m/s 632 mmHg 73%
    18:00 -3°C° 0,1 mm 4 m/s 632 mmHg 75%
    19:00 -2°C° 0,1 mm 3 m/s 632 mmHg 76%
    20:00 -2°C° 0,1 mm 3 m/s 632 mmHg 77%
    21:00 -2°C° 0,1 mm 3 m/s 632 mmHg 78%
    22:00 -2°C° 0,1 mm 3 m/s 632 mmHg 78%
    23:00 -2°C° 0,1 mm 2 m/s 632 mmHg 79%

    19 Janvier, Vendredi

    Heure Température Précipitation Vent Pression Humidité
    00:00 -2°C° 0,1 mm 2 m/s 632 mmHg 80%
    01:00 -2°C° 0,1 mm 2 m/s 632 mmHg 80%
    02:00 -2°C° 0,1 mm 2 m/s 632 mmHg 80%
    03:00 -2°C° 0,1 mm 2 m/s 632 mmHg 80%
    04:00 -2°C° 0 mm 2 m/s 632 mmHg 80%
    05:00 -2°C° 0 mm 2 m/s 631 mmHg 81%
    06:00 -2°C° 0 mm 2 m/s 631 mmHg 81%
    07:00 -2°C° 0,1 mm 2 m/s 632 mmHg 80%
    08:00 -1°C° 0,1 mm 2 m/s 632 mmHg 78%
    09:00 +1°C° 0,1 mm 2 m/s 633 mmHg 77%
    10:00 +2°C° 0,1 mm 2 m/s 633 mmHg 75%
    11:00 +3°C° 0,1 mm 2 m/s 633 mmHg 72%
    12:00 +4°C° 0,1 mm 2 m/s 634 mmHg 70%
    13:00 +3°C° 0,3 mm 2 m/s 634 mmHg 71%
    14:00 +4°C° 0,3 mm 1 m/s 634 mmHg 72%
    15:00 +4°C° 0,3 mm 1 m/s 634 mmHg 73%
    16:00 +3°C° 0,3 mm 1 m/s 635 mmHg 76%
    17:00 +2°C° 0,3 mm 1 m/s 635 mmHg 78%
    18:00 +2°C° 0,3 mm 1 m/s 636 mmHg 80%
    19:00 +1°C° 0,1 mm 1 m/s 636 mmHg 80%
    20:00 +1°C° 0,1 mm 1 m/s 637 mmHg 80%
    21:00 0°C° 0,1 mm 1 m/s 637 mmHg 80%
    22:00 0°C° 0 mm 1 m/s 637 mmHg 80%
    23:00 -1°C° 0 mm 1 m/s 638 mmHg 79%

    20 Janvier, Samedi

    Heure Température Précipitation Vent Pression Humidité
    00:00 -1°C° 0 mm 1 m/s 638 mmHg 79%
    01:00 -1°C° 0 mm 1 m/s 638 mmHg 78%
    02:00 -2°C° 0 mm 1 m/s 639 mmHg 76%
    03:00 -2°C° 0 mm 1 m/s 639 mmHg 75%
    04:00 -2°C° 0 mm 1 m/s 640 mmHg 74%
    05:00 -2°C° 0 mm 1 m/s 640 mmHg 73%
    06:00 -2°C° 0 mm 1 m/s 640 mmHg 72%
    07:00 -2°C° 0 mm 1 m/s 641 mmHg 70%
    08:00 -1°C° 0 mm 1 m/s 642 mmHg 68%
    09:00 0°C° 0 mm 1 m/s 643 mmHg 66%
    10:00 +1°C° 0 mm 1 m/s 643 mmHg 64%
    11:00 +3°C° 0 mm 1 m/s 643 mmHg 62%
    12:00 +4°C° 0 mm 1 m/s 643 mmHg 60%
    13:00 +4°C° 0 mm 1 m/s 643 mmHg 59%
    14:00 +4°C° 0 mm 1 m/s 643 mmHg 58%
    15:00 +4°C° 0 mm 1 m/s 643 mmHg 57%
    16:00 +3°C° 0 mm 1 m/s 643 mmHg 56%
    17:00 +1°C° 0 mm 1 m/s 643 mmHg 55%
    18:00 0°C° 0 mm 1 m/s 643 mmHg 54%
    19:00 0°C° 0 mm 1 m/s 644 mmHg 53%
    20:00 -2°C° 0 mm 2 m/s 644 mmHg 51%
    21:00 -3°C° 0 mm 2 m/s 644 mmHg 50%
    22:00 -3°C° 0 mm 2 m/s 644 mmHg 51%
    23:00 -3°C° 0 mm 2 m/s 644 mmHg 52%

    21 Janvier, Dimanche

    Heure Température Précipitation Vent Pression Humidité
    00:00 -3°C° 0 mm 2 m/s 645 mmHg 53%
    01:00 -3°C° 0 mm 2 m/s 645 mmHg 54%
    02:00 -3°C° 0 mm 2 m/s 645 mmHg 54%
    03:00 -1°C° 0 mm 1 m/s 645 mmHg 54%
    04:00 -3°C° 0 mm 2 m/s 645 mmHg 54%
    05:00 -4°C° 0 mm 2 m/s 645 mmHg 53%
    06:00 -4°C° 0 mm 2 m/s 644 mmHg 52%
    07:00 -3°C° 0 mm 2 m/s 645 mmHg 52%
    08:00 -2°C° 0 mm 2 m/s 645 mmHg 52%
    09:00 -1°C° 0 mm 2 m/s 646 mmHg 51%
    10:00 +2°C° 0 mm 2 m/s 645 mmHg 51%
    11:00 +3°C° 0 mm 2 m/s 645 mmHg 52%
    12:00 +5°C° 0 mm 2 m/s 645 mmHg 52%
    13:00 +5°C° 0 mm 2 m/s 645 mmHg 52%
    14:00 +5°C° 0 mm 2 m/s 645 mmHg 52%
    15:00 +5°C° 0 mm 2 m/s 644 mmHg 52%
    16:00 +4°C° 0 mm 2 m/s 644 mmHg 51%
    17:00 +3°C° 0 mm 2 m/s 644 mmHg 50%
    18:00 +1°C° 0 mm 2 m/s 644 mmHg 49%
    19:00 +1°C° 0 mm 2 m/s 644 mmHg 48%
    20:00 +1°C° 0 mm 2 m/s 644 mmHg 47%
    21:00 +1°C° 0 mm 2 m/s 644 mmHg 45%
    22:00 +1°C° 0 mm 2 m/s 644 mmHg 45%
    23:00 +1°C° 0 mm 2 m/s 643 mmHg 45%
    Voir plus